This demonstration page uses our WeatherBlox Daily Observations layout. Learn more.

Left ArrowRight Arrow

Hourly Observations for April 27, 2021

Temp ( °F °C ) Dew Point ( °F °C ) Humidity (%) Winds ( mph kmh ) Pressure ( in mb ) Visibility ( mi km ) Precip ( " mm )
12:15 am 00:15 Clear 68 20.1 53 11.6 58 58 S 15 24 29.36 994 10 16 0.00 0.00
12:35 am 00:35 Clear 67 19.6 53 11.5 60 60 S 15 24 29.36 994 10 16 0.00 0.00
12:55 am 00:55 Clear 67 19.3 52 11.1 59 59 S 17 28 29.36 994 10 16 0.00 0.00
1:15 am 01:15 Clear 66 18.7 52 11.2 62 62 S 15 24 29.38 995 10 16 0.00 0.00
1:35 am 01:35 Clear 65 18.5 53 11.5 64 64 S 16 26 29.37 995 10 16 0.00 0.00
1:55 am 01:55 Clear 64 18 53 11.7 67 67 S 14 22 29.37 994 10 16 0.00 0.00
2:15 am 02:15 Clear 64 18 54 12 68 68 S 14 22 29.37 994 10 16 0.00 0.00
2:35 am 02:35 Clear 64 17.5 54 12 70 70 S 15 24 29.37 995 10 16 0.00 0.00
2:55 am 02:55 Clear 64 17.5 54 12 70 70 S 14 22 29.36 994 10 16 0.00 0.00
3:15 am 03:15 Clear 62 16.6 53 11.8 73 73 S 13 20 29.37 994 10 16 0.00 0.00
3:35 am 03:35 Clear 61 16.2 53 11.5 74 74 S 14 22 29.37 995 10 16 0.00 0.00
3:55 am 03:55 Clear 60 15.5 51 10.7 73 73 SSW 10 17 29.40 995 10 16 0.00 0.00
4:15 am 04:15 Clear 58 14.6 49 9.5 72 72 SSW 7 11 29.40 996 10 16 0.00 0.00
4:35 am 04:35 Clear 57 14 46 8 67 67 SSW 7 11 29.42 996 10 16 0.00 0.00
4:55 am 04:55 Clear 56 13.3 44 6.4 63 63 SW 6 9 29.42 996 10 16 0.00 0.00
5:15 am 05:15 Clear 54 12.2 40 4.2 58 58 WSW 6 9 29.44 997 10 16 0.00 0.00
5:35 am 05:35 Clear 55 12.9 37 2.9 51 51 WNW 8 13 29.44 997 10 16 0.00 0.00
5:55 am 05:55 Clear 51 10.5 39 4 64 64 W 3 6 29.48 998 10 16 0.00 0.00
6:15 am 06:15 Clear 52 11 49 9.2 89 89 NNW 12 19 29.50 999 10 16 0.00 0.00
6:35 am 06:35 Mostly Cloudy 53 11.8 51 10.6 92 92 N 16 26 29.51 999 10 16 0.00 0.00
6:55 am 06:55 Partly Cloudy 53 11.6 51 10.5 93 93 N 10 17 29.54 1000 7 11 0.00 0.00
7:15 am 07:15 Mostly Cloudy 53 11.8 51 10.4 91 91 N 14 22 29.58 1002 7 11 0.00 0.00
7:35 am 07:35 Cloudy 52 11.3 49 9.4 88 88 N 18 30 29.56 1001 7 11 0.00 0.00
7:55 am 07:55 Cloudy 52 11.3 48 9 86 86 N 21 33 29.58 1002 10 16 0.00 0.00
8:15 am 08:15 Cloudy 52 11.3 48 8.7 84 84 N 17 28 29.61 1003 10 16 0.00 0.00
8:35 am 08:35 Cloudy 52 11.3 47 8.5 83 83 N 17 28 29.63 1003 10 16 0.00 0.00
8:55 am 08:55 Cloudy 53 11.5 47 8.6 83 83 N 17 28 29.64 1004 10 16 0.00 0.00
9:15 am 09:15 Cloudy 53 11.9 48 8.7 81 81 N 20 31 29.64 1004 10 16 0.00 0.00
9:35 am 09:35 Cloudy 55 12.5 48 9 79 79 N 21 33 29.64 1004 10 16 0.00 0.00
9:55 am 09:55 Cloudy 55 12.7 48 9 78 78 N 17 28 29.65 1004 10 16 0.00 0.00
10:15 am 10:15 Cloudy 56 13.1 48 8.9 76 76 N 20 31 29.65 1004 10 16 0.00 0.00
10:35 am 10:35 Cloudy 56 13.2 47 8.6 74 74 N 16 26 29.67 1005 10 16 0.00 0.00
10:55 am 10:55 Cloudy 56 13.5 48 8.7 73 73 N 20 31 29.68 1005 10 16 0.00 0.00
11:15 am 11:15 Cloudy 56 13.1 47 8.6 74 74 N 17 28 29.70 1006 10 16 0.00 0.00
11:35 am 11:35 Cloudy 55 12.7 47 8.5 76 76 N 17 28 29.71 1006 10 16 0.00 0.00
11:55 am 11:55 Cloudy 57 13.8 48 8.7 72 72 N 18 30 29.69 1005 10 16 0.00 0.00
12:15 pm 12:15 Cloudy 59 15 48 9 68 68 N 17 28 29.69 1005 10 16 0.00 0.00
12:35 pm 12:35 Cloudy 59 15.2 48 8.9 66 66 N 22 35 29.67 1005 10 16 0.00 0.00
12:55 pm 12:55 Cloudy 61 16.1 48 9 63 63 N 21 33 29.65 1004 10 16 0.00 0.00
1:15 pm 13:15 Cloudy 61 15.9 48 8.9 63 63 N 22 35 29.66 1004 10 16 0.00 0.00
1:35 pm 13:35 Mostly Cloudy 61 16.2 49 9.2 63 63 N 23 37 29.65 1004 10 16 0.00 0.00
1:55 pm 13:55 Partly Cloudy 62 16.4 49 9.4 63 63 NNE 21 33 29.66 1004 10 16 0.00 0.00
2:15 pm 14:15 Sunny 61 15.9 49 9.3 65 65 NNE 17 28 29.69 1005 10 16 0.00 0.00
2:35 pm 14:35 Sunny 60 15.7 49 9.5 67 67 NE 15 24 29.69 1006 10 16 0.00 0.00
2:55 pm 14:55 Sunny 62 16.4 49 9.7 65 65 NE 12 19 29.70 1006 10 16 0.00 0.00
3:15 pm 15:15 Sunny 63 17.3 50 9.8 62 62 NNE 14 22 29.69 1005 10 16 0.00 0.00
3:35 pm 15:35 Sunny 62 16.7 49 9.5 63 63 NNE 14 22 29.70 1006 10 16 0.00 0.00
3:55 pm 15:55 Mostly Cloudy 62 16.6 49 9.6 64 64 NE 12 19 29.72 1006 10 16 0.00 0.00
4:15 pm 16:15 Cloudy 61 16.2 49 9.4 64 64 ENE 12 19 29.72 1006 10 16 0.00 0.00
4:35 pm 16:35 Cloudy 61 15.9 48 9 64 64 NE 13 20 29.72 1006 10 16 0.00 0.00
4:55 pm 16:55 Cloudy 60 15.6 49 9.2 66 66 NE 15 24 29.72 1007 10 16 0.00 0.00
5:15 pm 17:15 Cloudy 59 15.2 48 9.1 67 67 NE 12 19 29.73 1007 10 16 0.00 0.00
5:35 pm 17:35 Cloudy 60 15.3 48 9 66 66 ENE 12 19 29.73 1007 10 16 0.00 0.00
5:55 pm 17:55 Cloudy 60 15.5 49 9.2 66 66 NE 10 17 29.73 1007 10 16 0.00 0.00
6:15 pm 18:15 Cloudy 60 15.6 49 9.2 66 66 ENE 15 24 29.73 1007 10 16 0.00 0.00
6:35 pm 18:35 Cloudy 60 15.6 48 9.1 65 65 NE 15 24 29.71 1006 10 16 0.00 0.00
6:55 pm 18:55 Cloudy 59 15 48 8.8 67 67 NE 18 30 29.74 1007 10 16 0.00 0.00
7:15 pm 19:15 Mostly Cloudy 59 15 48 8.9 67 67 NE 17 28 29.72 1006 10 16 0.00 0.00
7:35 pm 19:35 Mostly Cloudy 58 14.6 48 8.8 68 68 NE 18 30 29.74 1007 10 16 0.00 0.00
7:55 pm 19:55 Cloudy 58 14.2 47 8.6 69 69 NE 20 31 29.74 1007 10 16 0.00 0.00
8:15 pm 20:15 Mostly Cloudy 57 14 47 8.6 70 70 NE 17 28 29.76 1008 10 16 0.00 0.00
8:35 pm 20:35 Mostly Cloudy 57 13.7 47 8.5 71 71 ENE 14 22 29.78 1008 10 16 0.00 0.00
8:55 pm 20:55 Mostly Cloudy 56 13.5 47 8.4 71 71 NE 15 24 29.79 1009 10 16 0.00 0.00
9:15 pm 21:15 Mostly Cloudy 56 13.5 47 8.5 72 72 ENE 13 20 29.80 1009 10 16 0.00 0.00
9:35 pm 21:35 Cloudy 56 13.4 47 8.5 72 72 ENE 16 26 29.80 1009 10 16 0.00 0.00
9:55 pm 21:55 Cloudy 56 13.3 47 8.5 73 73 NE 14 22 29.80 1009 10 16 0.00 0.00
10:15 pm 22:15 Cloudy 56 13.3 47 8.5 73 73 NE 20 31 29.79 1009 10 16 0.00 0.00
10:35 pm 22:35 Cloudy 56 13.2 47 8.1 71 71 NE 23 37 29.79 1009 10 16 0.00 0.00
10:55 pm 22:55 Cloudy 55 13 47 8.1 72 72 NE 26 43 29.77 1008 10 16 0.00 0.00
11:15 pm 23:15 Mostly Cloudy 55 12.7 46 8 73 73 NE 26 43 29.76 1008 10 16 0.00 0.00
11:35 pm 23:35 Partly Cloudy 54 12.4 46 8 75 75 ENE 25 41 29.78 1009 10 16 0.00 0.00
11:55 pm 23:55 Mostly Cloudy 54 12.3 47 8.1 76 76 NE 17 28 29.79 1009 10 16 0.00 0.00

Powered by AerisWeather